| time (UTC) | temp F | wind direction | speed MPH | gust MPH | rain 1hr in | rain 24hr in | rain mn in | humidity % | barometer mb |
| 20260505124514 | 58 | 0 | 0.0 | 0.0 | 0.00 | 0.02 | 0.02 | 58 | 1023.7 |
| 20260505123615 | 58 | 0 | 0.0 | 0.0 | 0.00 | 0.02 | 0.02 | 58 | 1023.8 |
| 20260505122715 | 58 | 0 | 0.0 | 0.0 | 0.00 | 0.02 | 0.02 | 58 | 1023.8 |
| 20260505121815 | 58 | 0 | 0.0 | 0.0 | 0.00 | 0.02 | 0.02 | 58 | 1023.9 |
| 20260505120915 | 58 | 0 | 0.0 | 0.0 | 0.00 | 0.02 | 0.02 | 58 | 1023.8 |
| 20260505120015 | 58 | 0 | 0.0 | 0.0 | 0.00 | 0.02 | 0.02 | 58 | 1023.8 |
| 20260505115115 | 58 | 123 | 0.0 | 1.0 | 0.00 | 0.02 | 0.02 | 58 | 1023.8 |
| 20260505114215 | 58 | 123 | 0.0 | 2.0 | 0.00 | 0.02 | 0.02 | 58 | 1023.8 |
| 20260505113315 | 58 | 124 | 1.0 | 2.0 | 0.00 | 0.02 | 0.02 | 58 | 1023.8 |
| 20260505111514 | 58 | 123 | 0.0 | 1.0 | 0.00 | 0.02 | 0.02 | 58 | 1023.8 |
| 20260505110615 | 58 | 123 | 0.0 | 1.0 | 0.00 | 0.02 | 0.02 | 58 | 1023.9 |
| 20260505100314 | 58 | 0 | 0.0 | 0.0 | 0.00 | 0.05 | 0.02 | 58 | 1023.8 |
| 20260505092715 | 58 | 271 | 0.0 | 1.0 | 0.00 | 0.05 | 0.02 | 59 | 1023.7 |
| 20260505090914 | 57 | 0 | 0.0 | 0.0 | 0.00 | 0.05 | 0.02 | 59 | 1023.6 |
| 20260505085115 | 56 | 271 | 0.0 | 2.0 | 0.00 | 0.05 | 0.02 | 58 | 1023.4 |
| 20260505083315 | 57 | 0 | 0.0 | 0.0 | 0.00 | 0.05 | 0.02 | 58 | 1023.1 |
| 20260505082415 | 57 | 0 | 0.0 | 0.0 | 0.00 | 0.05 | 0.02 | 57 | 1022.9 |
| 20260505081514 | 57 | 0 | 0.0 | 0.0 | 0.00 | 0.05 | 0.02 | 57 | 1022.9 |
| 20260505080615 | 57 | 271 | 0.0 | 1.0 | 0.00 | 0.05 | 0.02 | 57 | 1022.9 |
| 20260505075714 | 58 | 261 | 1.0 | 3.0 | 0.00 | 0.05 | 0.02 | 57 | 1022.8 |
| 20260505074814 | 58 | 236 | 1.0 | 5.0 | 0.00 | 0.05 | 0.02 | 57 | 1022.8 |
| 20260505073915 | 58 | 244 | 1.0 | 3.0 | 0.00 | 0.05 | 0.02 | 56 | 1022.7 |
| 20260505073014 | 58 | 243 | 1.0 | 4.0 | 0.00 | 0.05 | 0.02 | 55 | 1022.7 |
| 20260505072114 | 59 | 238 | 2.0 | 5.0 | 0.00 | 0.05 | 0.02 | 55 | 1022.7 |
| 20260505064514 | 61 | 262 | 3.0 | 8.0 | 0.00 | 0.05 | 0.02 | 52 | 1022.7 |
| 20260505063615 | 61 | 246 | 5.0 | 8.0 | 0.00 | 0.05 | 0.02 | 51 | 1022.7 |
| 20260505062714 | 62 | 226 | 5.0 | 11.0 | 0.00 | 0.05 | 0.02 | 52 | 1022.7 |
| 20260505061814 | 62 | 229 | 4.0 | 10.0 | 0.00 | 0.05 | 0.02 | 52 | 1022.6 |
| 20260505060914 | 62 | 211 | 5.0 | 9.0 | 0.00 | 0.05 | 0.02 | 52 | 1022.6 |
| 20260505060013 | 62 | 205 | 6.0 | 14.0 | 0.00 | 0.05 | 0.02 | 51 | 1022.6 |
| 20260505055114 | 63 | 222 | 6.0 | 10.0 | 0.00 | 0.05 | 0.02 | 51 | 1022.6 |
| 20260505053314 | 64 | 221 | 7.0 | 14.0 | 0.00 | 0.05 | 0.02 | 50 | 1022.3 |
| 20260505052414 | 64 | 217 | 5.0 | 10.0 | 0.00 | 0.05 | 0.02 | 48 | 1022.3 |
| 20260505051513 | 65 | 259 | 7.0 | 13.0 | 0.00 | 0.05 | 0.02 | 44 | 1022.2 |
| 20260505050614 | 65 | 249 | 7.0 | 13.0 | 0.00 | 0.05 | 0.02 | 46 | 1022.1 |
| 20260505041214 | 64 | 226 | 4.0 | 9.0 | 0.00 | 0.05 | 0.02 | 52 | 1022.2 |
| 20260505040314 | 63 | 190 | 5.0 | 9.0 | 0.00 | 0.05 | 0.02 | 52 | 1022.4 |
| 20260505035414 | 63 | 221 | 5.0 | 10.0 | 0.00 | 0.05 | 0.02 | 53 | 1022.5 |
| 20260505034513 | 63 | 211 | 4.0 | 7.0 | 0.00 | 0.05 | 0.02 | 54 | 1022.5 |
| 20260505033614 | 63 | 210 | 4.0 | 11.0 | 0.00 | 0.05 | 0.02 | 54 | 1022.6 |
| 20260505030914 | 62 | 234 | 5.0 | 9.0 | 0.00 | 0.05 | 0.02 | 53 | 1022.9 |
| 20260505030013 | 62 | 212 | 6.0 | 11.0 | 0.00 | 0.05 | 0.02 | 53 | 1022.9 |
| 20260505025114 | 63 | 230 | 5.0 | 10.0 | 0.00 | 0.05 | 0.02 | 53 | 1023.0 |
| 20260505024214 | 63 | 251 | 4.0 | 9.0 | 0.00 | 0.05 | 0.02 | 53 | 1023.1 |
| 20260505023313 | 62 | 269 | 5.0 | 9.0 | 0.00 | 0.05 | 0.02 | 54 | 1023.2 |
| 20260505022414 | 62 | 258 | 4.0 | 9.0 | 0.00 | 0.05 | 0.02 | 55 | 1023.2 |
| 20260505021513 | 61 | 263 | 4.0 | 8.0 | 0.00 | 0.05 | 0.02 | 55 | 1023.2 |
| 20260505020614 | 61 | 282 | 1.0 | 4.0 | 0.00 | 0.05 | 0.02 | 54 | 1023.3 |
| 20260505013914 | 60 | 286 | 2.0 | 6.0 | 0.00 | 0.05 | 0.02 | 57 | 1023.4 |
| 20260505013013 | 60 | 258 | 4.0 | 8.0 | 0.00 | 0.05 | 0.02 | 57 | 1023.4 |
| 20260505012114 | 62 | 300 | 2.0 | 7.0 | 0.00 | 0.05 | 0.02 | 55 | 1023.3 |
| 20260505011213 | 59 | 261 | 1.0 | 3.0 | 0.00 | 0.05 | 0.02 | 59 | 1023.2 |
| 20260505005413 | 58 | 288 | 2.0 | 3.0 | 0.00 | 0.05 | 0.02 | 59 | 1023.1 |
| 20260505004513 | 58 | 289 | 2.0 | 3.0 | 0.00 | 0.05 | 0.02 | 58 | 1023.1 |
| 20260505003614 | 59 | 255 | 2.0 | 7.0 | 0.00 | 0.05 | 0.02 | 59 | 1022.9 |
| 20260505002713 | 61 | 291 | 2.0 | 6.0 | 0.00 | 0.05 | 0.02 | 59 | 1022.9 |
| 20260505001813 | 60 | 296 | 1.0 | 3.0 | 0.00 | 0.05 | 0.02 | 62 | 1022.9 |
| 20260505000913 | 59 | 265 | 1.0 | 4.0 | 0.00 | 0.05 | 0.02 | 65 | 1022.8 |
| 20260505000013 | 59 | 175 | 1.0 | 4.0 | 0.00 | 0.05 | 0.02 | 67 | 1022.8 |
| 20260504235113 | 58 | 160 | 1.0 | 4.0 | 0.00 | 0.05 | 0.02 | 67 | 1022.8 |
| 20260504234213 | 59 | 160 | 0.0 | 4.0 | 0.00 | 0.05 | 0.02 | 68 | 1022.7 |
| 20260504232413 | 58 | 160 | 1.0 | 4.0 | 0.00 | 0.05 | 0.02 | 68 | 1022.6 |
| 20260504231513 | 57 | 160 | 1.0 | 4.0 | 0.00 | 0.05 | 0.02 | 68 | 1022.6 |
| 20260504230613 | 57 | 160 | 2.0 | 4.0 | 0.00 | 0.05 | 0.02 | 68 | 1022.5 |
| 20260504225713 | 57 | 159 | 1.0 | 5.0 | 0.00 | 0.05 | 0.02 | 68 | 1022.4 |
| 20260504224813 | 57 | 155 | 1.0 | 4.0 | 0.00 | 0.05 | 0.02 | 68 | 1022.3 |
| 20260504223913 | 56 | 155 | 2.0 | 3.0 | 0.00 | 0.05 | 0.02 | 68 | 1022.3 |
| 20260504223012 | 55 | 142 | 2.0 | 3.0 | 0.00 | 0.05 | 0.02 | 67 | 1022.2 |
| 20260504222113 | 55 | 137 | 1.0 | 3.0 | 0.00 | 0.05 | 0.02 | 67 | 1022.1 |
| 20260504221213 | 55 | 141 | 1.0 | 4.0 | 0.00 | 0.05 | 0.02 | 67 | 1022.0 |
| 20260504220313 | 55 | 143 | 1.0 | 3.0 | 0.00 | 0.05 | 0.02 | 67 | 1021.9 |
| 20260504215413 | 54 | 242 | 1.0 | 3.0 | 0.00 | 0.05 | 0.02 | 67 | 1021.8 |
| 20260504213613 | 54 | 151 | 0.0 | 1.0 | 0.00 | 0.05 | 0.02 | 67 | 1021.7 |
| 20260504212713 | 54 | 152 | 1.0 | 3.0 | 0.00 | 0.05 | 0.02 | 67 | 1021.6 |
| 20260504211813 | 54 | 151 | 1.0 | 2.0 | 0.00 | 0.05 | 0.02 | 67 | 1021.5 |
| 20260504210913 | 54 | 151 | 1.0 | 3.0 | 0.00 | 0.05 | 0.02 | 67 | 1021.4 |
| 20260504210012 | 54 | 152 | 1.0 | 3.0 | 0.00 | 0.05 | 0.02 | 67 | 1021.3 |
| 20260504205113 | 54 | 151 | 1.0 | 3.0 | 0.00 | 0.05 | 0.02 | 66 | 1021.1 |
| 20260504204212 | 54 | 151 | 1.0 | 3.0 | 0.00 | 0.05 | 0.02 | 67 | 1021.0 |
| 20260504202413 | 54 | 151 | 1.0 | 3.0 | 0.00 | 0.05 | 0.02 | 66 | 1021.0 |
| 20260504201513 | 54 | 151 | 1.0 | 1.0 | 0.00 | 0.05 | 0.02 | 66 | 1020.9 |
| 20260504200613 | 54 | 151 | 0.0 | 1.0 | 0.01 | 0.05 | 0.02 | 66 | 1020.8 |
| 20260504195712 | 53 | 152 | 1.0 | 5.0 | 0.01 | 0.05 | 0.02 | 66 | 1020.8 |
| 20260504194813 | 53 | 146 | 2.0 | 5.0 | 0.01 | 0.05 | 0.02 | 66 | 1020.6 |
| 20260504193012 | 53 | 116 | 1.0 | 3.0 | 0.01 | 0.05 | 0.02 | 66 | 1020.5 |
| 20260504192113 | 53 | 116 | 2.0 | 3.0 | 0.01 | 0.05 | 0.02 | 66 | 1020.4 |
| 20260504191213 | 53 | 117 | 1.0 | 2.0 | 0.01 | 0.05 | 0.02 | 66 | 1020.3 |
| 20260504190313 | 54 | 117 | 1.0 | 1.0 | 0.00 | 0.04 | 0.01 | 66 | 1020.3 |
| 20260504185413 | 54 | 117 | 1.0 | 2.0 | 0.00 | 0.04 | 0.01 | 66 | 1020.2 |
| 20260504184513 | 54 | 117 | 1.0 | 2.0 | 0.00 | 0.04 | 0.01 | 66 | 1020.2 |
| 20260504183613 | 54 | 116 | 0.0 | 2.0 | 0.00 | 0.04 | 0.01 | 66 | 1020.2 |
| 20260504182712 | 54 | 117 | 0.0 | 2.0 | 0.00 | 0.04 | 0.01 | 66 | 1020.1 |
| 20260504181813 | 54 | 116 | 0.0 | 2.0 | 0.00 | 0.04 | 0.01 | 66 | 1020.0 |
| 20260504180913 | 54 | 116 | 0.0 | 2.0 | 0.00 | 0.04 | 0.01 | 66 | 1020.0 |
| 20260504180012 | 54 | 117 | 0.0 | 2.0 | 0.00 | 0.04 | 0.01 | 66 | 1019.9 |
| 20260504175112 | 54 | 116 | 0.0 | 2.0 | 0.00 | 0.04 | 0.01 | 66 | 1020.0 |
| 20260504172413 | 54 | 83 | 2.0 | 3.0 | 0.01 | 0.04 | 0.01 | 66 | 1020.1 |
| 20260504171512 | 54 | 104 | 2.0 | 3.0 | 0.01 | 0.04 | 0.01 | 66 | 1020.1 |
| 20260504160312 | 54 | 139 | 1.0 | 4.0 | 0.00 | 0.04 | 0.00 | 66 | 1020.1 |
| 20260504150912 | 54 | 0 | 0.0 | 0.0 | 0.00 | 0.07 | 0.00 | 66 | 1020.1 |
| 20260504140611 | 54 | 0 | 0.0 | 0.0 | 0.00 | 0.09 | 0.09 | 66 | 1019.7 |